Weather History for LIVE - November, 2011

Change the Weather History Date:

Friday, November 4, 2011

  Actual Average Record
Temperature  
Mean Temperature 39 °F -  
Max Temperature 41 °F 45 °F 71 °F (1997)
Min Temperature 37 °F 31 °F 23 °F (2006)
Degree Days  
Heating Degree Days 26    
Moisture  
Dew Point 36 °F    
Average Humidity 89    
Maximum Humidity 93    
Minimum Humidity 81    
Precipitation  
Precipitation 0.00 in - - ()
Sea Level Pressure  
Sea Level Pressure 29.93 in    
Wind  
Wind Speed 6 mph ()    
Max Wind Speed 10 mph    
Max Gust Speed 18 mph    
Visibility 1.4 miles    
Events Fog , Rain    
Averages and records for this station are not official NWS values.
T = Trace of Precipitation, MM = Missing Value Source: Averaged Metar Reports

Daily Weather History Graph

Daily Weather History Graph

Search for Another Location

Airport or City:

Trip Planner

Search our weather history database for the weather conditions in past years. The results will help you decide how hot, cold, wet, or windy it might be!

Date:

Astronomy

Nov. 04, 2011 Rise Set
Actual Time 7:03 AM CET 4:58 PM CET
Civil Twilight 6:32 AM CET 5:30 PM CET
Nautical Twilight 5:55 AM CET 6:06 PM CET
Astronomical Twilight 5:20 AM CET 6:41 PM CET
Moon 2:02 PM CET (11/4) 12:37 AM CET (11/4)
Length of Visible Light 10h 58m
Length of Day
9h 54m
Waxing Gibbous, 67% of the Moon is Illuminated
Nov 4
Waxing Gibbous
Nov 10
Full
Nov 18
Last Quarter
Nov 25
New
Dec 2
First Quarter

Hourly Weather History & Observations

Time (CET) Temp. Windchill Dew Point Humidity Pressure Visibility Wind Dir Wind Speed Gust Speed Precip Events Conditions
12:55 AM 37.4 °F 33.8 °F 35.6 °F 93% 29.95 in 4.3 mi SSE 4.6 mph - N/A   Mostly Cloudy
1:55 AM 37.4 °F 33.8 °F 35.6 °F 93% 29.95 in 4.3 mi ESE 4.6 mph - N/A   Mostly Cloudy
2:55 AM 37.4 °F 32.8 °F 35.6 °F 93% 29.92 in 3.7 mi SE 5.8 mph - N/A   Mostly Cloudy
4:55 AM 37.4 °F 32.8 °F 33.8 °F 87% 29.92 in 3.7 mi SSE 5.8 mph - N/A   Mostly Cloudy
5:55 AM 37.4 °F 32.1 °F 35.6 °F 93% 29.92 in 1.9 mi SSW 6.9 mph - N/A   Overcast
6:55 AM 37.4 °F 31.4 °F 35.6 °F 93% 29.92 in 0.9 mi SSW 8.1 mph - N/A   Overcast
7:55 AM 37.4 °F 32.1 °F 33.8 °F 87% 29.95 in 0.9 mi South 6.9 mph - N/A   Overcast
8:55 AM 37.4 °F 31.4 °F 33.8 °F 87% 29.95 in 0.9 mi South 8.1 mph - N/A   Overcast
9:55 AM 37.4 °F 31.4 °F 33.8 °F 87% 29.95 in 2.2 mi SSE 8.1 mph - N/A   Mostly Cloudy
10:55 AM 39.2 °F 34.2 °F 35.6 °F 87% 29.95 in 1.6 mi SE 6.9 mph 18.4 mph N/A   Overcast
12:55 PM 39.2 °F 34.2 °F 35.6 °F 87% 29.95 in 0.9 mi South 6.9 mph - N/A Rain Light Rain
1:55 PM 39.2 °F 34.2 °F 35.6 °F 87% 29.95 in 1.2 mi SE 6.9 mph 18.4 mph N/A   Overcast
2:55 PM 41.0 °F 34.7 °F 37.4 °F 87% 29.92 in 0.7 mi ESE 10.4 mph - N/A   Overcast
5:55 PM 39.2 °F 33.6 °F 37.4 °F 93% 29.92 in 0.1 mi SE 8.1 mph - N/A Fog Fog
6:55 PM 41.0 °F 35.2 °F 37.4 °F 87% 29.92 in 0.1 mi SE 9.2 mph - N/A Fog Fog
7:55 PM 41.0 °F 37.1 °F 37.4 °F 87% 29.92 in 0.1 mi SSE 5.8 mph - N/A Fog Fog
8:55 PM 39.2 °F 35.0 °F 37.4 °F 93% 29.92 in 0.1 mi SSE 5.8 mph - N/A Fog Fog
9:55 PM 39.2 °F 34.2 °F 37.4 °F 93% 29.92 in 0.1 mi SSE 6.9 mph - N/A Fog Fog
10:55 PM 39.2 °F 34.2 °F 37.4 °F 93% 29.92 in 0.1 mi ESE 6.9 mph - N/A Fog Fog
11:55 PM 41.0 °F 35.8 °F 35.6 °F 81% 29.92 in 0.1 mi SE 8.1 mph - N/A Fog Fog